Telluride, CO

3:20 AM MDT on June 23, 2018 (GMT -0600)
Telluride Regional

Weather History for KTEX - October, 2017

Change the Weather History Date:

Wednesday, October 25, 2017

  Actual Average Record
Temperature  
Mean Temperature 48 °F -  
Max Temperature 61 °F 44 °F 66 °F (2014)
Min Temperature 36 °F 28 °F 17 °F (1997)
Degree Days  
Heating Degree Days 16    
Moisture  
Dew Point 19 °F    
Average Humidity 35    
Maximum Humidity 51    
Minimum Humidity 19    
Precipitation  
Precipitation 0.00 in - - ()
Sea Level Pressure  
Sea Level Pressure 30.42 in    
Wind  
Wind Speed 6 mph (SSW)    
Max Wind Speed 15 mph    
Max Gust Speed 22 mph    
Visibility 10 miles    
Events      
Averages and records for this station are not official NWS values.
T = Trace of Precipitation, MM = Missing Value Source: NWS Daily Summary

Daily Weather History Graph

Daily Weather History Graph

Search for Another Location

Airport or City:

Astronomy

Oct. 25, 2017 Rise Set
Actual Time 7:30 AM MDT 6:20 PM MDT
Civil Twilight 7:03 AM MDT 6:47 PM MDT
Nautical Twilight 6:32 AM MDT 7:18 PM MDT
Astronomical Twilight 6:02 AM MDT 7:48 PM MDT
Moon 12:38 PM MDT (10/25) 10:47 PM MDT (10/25)
Length of Visible Light 11h 43m
Length of Day
10h 50m
Waxing Crescent, 30% of the Moon is Illuminated
Oct 25
Waxing Crescent
Oct 27
First Quarter
Nov 3
Full
Nov 10
Last Quarter
Nov 18
New

Hourly Weather History & Observations

Time (MDT) Temp. Windchill Dew Point Humidity Pressure Visibility Wind Dir Wind Speed Gust Speed Precip Events Conditions
12:15 AM 36.5 °F 30.3 °F 19.4 °F 50% 30.58 in 10.0 mi SE 8.1 mph - N/A   Clear
12:35 AM 37.4 °F 32.8 °F 18.7 °F 47% 30.58 in 10.0 mi SE 5.8 mph - N/A   Clear
12:55 AM 36.7 °F 32.9 °F 18.5 °F 48% 30.58 in 10.0 mi ESE 4.6 mph - N/A   Clear
1:15 AM 37.0 °F 31.6 °F 18.5 °F 47% 30.58 in 10.0 mi SE 6.9 mph - N/A   Clear
1:35 AM 36.0 °F 30.3 °F 18.9 °F 50% 30.57 in 10.0 mi SE 6.9 mph - N/A   Clear
1:55 AM 37.4 °F 32.1 °F 18.3 °F 46% 30.57 in 10.0 mi ESE 6.9 mph - N/A   Clear
2:15 AM 36.7 °F 31.2 °F 18.5 °F 48% 30.56 in 10.0 mi ESE 6.9 mph - N/A   Clear
2:35 AM 37.2 °F - 18.1 °F 46% 30.56 in 10.0 mi Calm Calm - N/A   Clear
2:55 AM 38.8 °F 36.5 °F 17.6 °F 42% 30.56 in 10.0 mi South 3.5 mph - N/A   Clear
3:35 AM 38.8 °F 34.6 °F 18.3 °F 44% 30.55 in 10.0 mi ESE 5.8 mph - N/A   Clear
3:55 AM 37.9 °F 32.7 °F 19.6 °F 48% 30.54 in 10.0 mi ESE 6.9 mph - N/A   Clear
4:15 AM 39.0 °F 34.8 °F 19.8 °F 46% 30.53 in 10.0 mi South 5.8 mph - N/A   Clear
4:35 AM 38.1 °F 35.7 °F 20.7 °F 49% 30.53 in 10.0 mi East 3.5 mph - N/A   Clear
4:55 AM 39.2 °F - 20.8 °F 48% 30.53 in 10.0 mi Calm Calm - N/A   Clear
5:15 AM 39.0 °F 34.0 °F 21.2 °F 49% 30.52 in 10.0 mi SE 6.9 mph - N/A   Clear
5:35 AM 37.9 °F 33.5 °F 19.0 °F 47% 30.52 in 10.0 mi ESE 5.8 mph - N/A   Clear
5:55 AM 38.1 °F - 19.9 °F 48% 30.52 in 10.0 mi Calm Calm - N/A   Clear
6:15 AM 38.3 °F 34.8 °F 21.6 °F 51% 30.51 in 10.0 mi SE 4.6 mph - N/A   Clear
6:55 AM 38.5 °F 34.1 °F 21.0 °F 50% 30.51 in 10.0 mi SE 5.8 mph - N/A   Clear
7:55 AM 37.9 °F 33.5 °F 20.8 °F 50% 30.50 in 10.0 mi SE 5.8 mph - N/A   Clear
8:15 AM 39.9 °F 35.8 °F 19.6 °F 44% 30.50 in 10.0 mi SSE 5.8 mph - N/A   Clear
8:35 AM 42.3 °F 40.5 °F 20.3 °F 42% 30.51 in 10.0 mi SSE 3.5 mph - N/A   Clear
9:15 AM 44.6 °F - 21.0 °F 39% 30.51 in 10.0 mi Calm Calm - N/A   Clear
9:35 AM 46.8 °F - 20.8 °F 36% 30.50 in 10.0 mi Calm Calm - N/A   Clear
9:55 AM 49.1 °F - 21.2 °F 33% 30.50 in 10.0 mi Calm Calm - N/A   Clear
10:15 AM 49.5 °F - 20.8 °F 32% 30.49 in 10.0 mi West 4.6 mph - N/A   Clear
10:35 AM 50.4 °F - 19.8 °F 30% 30.49 in 10.0 mi West 6.9 mph - N/A   Clear
10:55 AM 53.1 °F - 20.1 °F 28% 30.48 in 10.0 mi West 3.5 mph - N/A   Clear
11:15 AM 53.6 °F - 20.3 °F 27% 30.47 in 10.0 mi West 5.8 mph - N/A   Clear
11:35 AM 55.6 °F - 20.5 °F 26% 30.47 in 10.0 mi West 5.8 mph - N/A   Clear
11:55 AM 57.2 °F - 20.3 °F 24% 30.46 in 10.0 mi West 5.8 mph - N/A   Clear
12:15 PM 58.1 °F - 19.2 °F 22% 30.45 in 10.0 mi West 4.6 mph - N/A   Clear
12:35 PM 59.4 °F - 19.2 °F 21% 30.43 in 10.0 mi West 5.8 mph - N/A   Clear
12:55 PM 59.9 °F - 18.9 °F 20% 30.42 in 10.0 mi West 8.1 mph - N/A   Clear
1:15 PM 60.4 °F - 18.5 °F 20% 30.40 in 10.0 mi West 8.1 mph - N/A   Clear
1:35 PM 61.0 °F - 19.0 °F 20% 30.38 in 10.0 mi West 8.1 mph - N/A   Clear
1:55 PM 61.5 °F - 18.3 °F 19% 30.38 in 10.0 mi West 9.2 mph - N/A   Clear
2:15 PM 60.6 °F - 17.4 °F 19% 30.36 in 10.0 mi West 13.8 mph - N/A   Clear
2:35 PM 61.0 °F - 18.0 °F 19% 30.36 in 10.0 mi West 15.0 mph - N/A   Clear
2:55 PM 60.8 °F - 18.5 °F 19% 30.36 in 10.0 mi West 15.0 mph - N/A   Clear
3:15 PM 60.8 °F - 18.7 °F 20% 30.34 in 10.0 mi West 11.5 mph - N/A   Clear
3:35 PM 60.8 °F - 18.5 °F 19% 30.34 in 10.0 mi West 13.8 mph 18.4 mph N/A   Clear
3:55 PM 60.6 °F - 18.1 °F 19% 30.34 in 10.0 mi West 15.0 mph 18.4 mph N/A   Clear
4:15 PM 59.9 °F - 18.5 °F 20% 30.34 in 10.0 mi West 13.8 mph 20.7 mph N/A   Clear
4:35 PM 59.4 °F - 18.9 °F 21% 30.33 in 10.0 mi West 13.8 mph 21.9 mph N/A   Clear
4:55 PM 58.8 °F - 18.5 °F 21% 30.33 in 10.0 mi West 12.7 mph 19.6 mph N/A   Clear
5:15 PM 58.1 °F - 18.3 °F 21% 30.32 in 10.0 mi WNW 9.2 mph 17.3 mph N/A   Clear
5:35 PM 57.4 °F - 18.1 °F 22% 30.32 in 10.0 mi WNW 10.4 mph - N/A   Clear
5:55 PM 56.1 °F - 18.0 °F 22% 30.32 in 10.0 mi WNW 10.4 mph 17.3 mph N/A   Clear
6:15 PM 54.7 °F - 18.3 °F 24% 30.31 in 10.0 mi WNW 6.9 mph - N/A   Clear
6:35 PM 54.0 °F - 18.5 °F 25% 30.30 in 10.0 mi NW 4.6 mph - N/A   Clear
6:55 PM 52.9 °F - 18.5 °F 26% 30.31 in 10.0 mi West 4.6 mph - N/A   Clear
7:15 PM 51.3 °F - 18.7 °F 28% 30.31 in 10.0 mi SW 3.5 mph - N/A   Clear
7:35 PM 50.7 °F - 19.0 °F 29% 30.31 in 10.0 mi Calm Calm - N/A   Clear
7:55 PM 48.4 °F - 19.6 °F 32% 30.30 in 10.0 mi South 4.6 mph - N/A   Clear
8:15 PM 47.1 °F - 19.6 °F 34% 30.30 in 10.0 mi SE 3.5 mph - N/A   Clear
8:35 PM 46.0 °F - 19.6 °F 35% 30.30 in 10.0 mi Calm Calm - N/A   Clear
8:55 PM 45.9 °F - 19.4 °F 35% 30.30 in 10.0 mi Calm Calm - N/A   Clear
9:15 PM 44.4 °F - 19.2 °F 37% 30.31 in 10.0 mi Calm Calm - N/A   Clear
9:35 PM 44.8 °F - 18.5 °F 35% 30.31 in 10.0 mi Calm Calm - N/A   Clear
9:55 PM 44.4 °F 42.0 °F 19.6 °F 37% 30.32 in 10.0 mi SSE 4.6 mph - N/A   Clear
10:15 PM 41.0 °F 35.8 °F 20.8 °F 45% 30.32 in 10.0 mi SE 8.1 mph - N/A   Clear
10:35 PM 41.2 °F 36.0 °F 20.7 °F 44% 30.31 in 10.0 mi ESE 8.1 mph - N/A   Clear
10:55 PM 41.0 °F 35.8 °F 20.3 °F 44% 30.31 in 10.0 mi SE 8.1 mph - N/A   Clear
11:15 PM 39.6 °F 35.4 °F 20.3 °F 46% 30.30 in 10.0 mi SE 5.8 mph - N/A   Clear
11:35 PM 39.4 °F 33.8 °F 20.3 °F 46% 30.29 in 10.0 mi SSE 8.1 mph - N/A   Clear
11:55 PM 39.2 °F 33.6 °F 20.3 °F 47% 30.28 in 10.0 mi SSE 8.1 mph - N/A   Clear